20040725,000004,1045460,33.820000,-121.840000,NaN,17.672,33.319,43.609,  NaN,0.0, NaN, NaN, NaN, NaN,24.064,383.920,18.00,1015.86,89.40,NaN,309.0,NaN,3.5,NaN,315.1,NaN,3.6,NaN,NaN, NaN,NaN,36.0,NaN,NaN,NaN,2,0.9,000002,   NaN,6.4,     NaN,      NaN,NaN,0.1,NaN,17.676, NaN,NaN,NaN, NaN, NaN
20040725,000034,1045490,33.820000,-121.839833,NaN,17.667,33.318,43.603,  NaN,0.0, NaN, NaN, NaN, NaN,24.065,383.866,18.00,1015.85,89.50,NaN,313.0,NaN,3.7,NaN,319.3,NaN,3.6,NaN,NaN, NaN,NaN,55.0,NaN,NaN,NaN,2,0.9,000032,   NaN,7.7,     NaN,      NaN,NaN,0.1,NaN,17.671, NaN,NaN,NaN, NaN, NaN
20040725,000104,1045520,33.820167,-121.839500,NaN,17.680,33.317,43.615,  NaN,0.0, NaN, NaN, NaN, NaN,24.061,384.231,18.00,1015.88,89.50,NaN,320.0,NaN,3.4,NaN,320.2,NaN,3.3,NaN,NaN, NaN,NaN,63.0,NaN,NaN,NaN,2,1.0,000062,   NaN,6.4,     NaN,      NaN,NaN,0.0,NaN,17.685, NaN,NaN,NaN, NaN, NaN
20040725,000134,1045550,33.820167,-121.839500,NaN,17.690,33.318,43.625,  NaN,0.0, NaN, NaN, NaN, NaN,24.060,384.366,17.80,1015.89,89.30,NaN,315.0,NaN,3.0,NaN,315.5,NaN,3.1,NaN,NaN, NaN,NaN,53.0,NaN,NaN,NaN,2,0.8,000092,   NaN,5.1,     NaN,      NaN,NaN,0.2,NaN,17.694, NaN,NaN,NaN, NaN, NaN
20040725,000204,1045580,33.820333,-121.839333,NaN,17.684,33.318,43.621,  NaN,0.0, NaN, NaN, NaN, NaN,24.061,384.224,18.00,1015.90,89.50,NaN,311.0,NaN,3.8,NaN,304.4,NaN,3.8,NaN,NaN, NaN,NaN,38.0,NaN,NaN,NaN,2,0.7,000122,   NaN,6.6,     NaN,      NaN,NaN,0.2,NaN,17.689, NaN,NaN,NaN, NaN, NaN
20040725,000234,1045610,33.820333,-121.839167,NaN,17.682,33.318,43.618,  NaN,0.0, NaN, NaN, NaN, NaN,24.061,384.206,18.00,1015.91,89.70,NaN,307.0,NaN,3.9,NaN,309.3,NaN,3.6,NaN,NaN, NaN,NaN,52.0,NaN,NaN,NaN,2,0.7,000152,   NaN,10.0,     NaN,      NaN,NaN,0.1,NaN,17.686, NaN,NaN,NaN, NaN, NaN
20040725,000304,1045640,33.820333,-121.839167,NaN,17.690,33.318,43.625,  NaN,0.0, NaN, NaN, NaN, NaN,24.060,384.366,18.10,1015.87,89.40,NaN,291.0,NaN,4.7,NaN,298.9,NaN,4.7,NaN,NaN, NaN,NaN,151.0,NaN,NaN,NaN,2,0.7,000182,   NaN,14.7,     NaN,      NaN,NaN,-0.1,NaN,17.694, NaN,NaN,NaN, NaN, NaN
20040725,000334,1045670,33.820333,-121.839000,NaN,17.684,33.318,43.620,  NaN,0.0, NaN, NaN, NaN, NaN,24.061,384.224,18.10,1015.82,89.40,NaN,284.0,NaN,4.1,NaN,303.1,NaN,3.9,NaN,NaN, NaN,NaN,138.0,NaN,NaN,NaN,2,0.6,000212,   NaN,22.4,     NaN,      NaN,NaN,-0.4,NaN,17.688, NaN,NaN,NaN, NaN, NaN
20040725,000404,1045700,33.820333,-121.839000,NaN,17.590,33.322,43.534,  NaN,0.0, NaN, NaN, NaN, NaN,24.087,381.789,18.10,1015.91,89.30,NaN,270.0,NaN,3.4,NaN,293.9,NaN,3.2,NaN,NaN, NaN,NaN,143.0,NaN,NaN,NaN,2,0.8,000242,   NaN,31.4,     NaN,      NaN,NaN,-0.3,NaN,17.594, NaN,NaN,NaN, NaN, NaN
20040725,000434,1045730,33.820167,-121.839000,NaN,17.495,33.323,43.444,  NaN,0.0, NaN, NaN, NaN, NaN,24.110,379.570,18.00,1015.80,89.00,NaN,257.0,NaN,3.4,NaN,292.0,NaN,3.6,NaN,NaN, NaN,NaN,190.0,NaN,NaN,NaN,2,0.7,000272,   NaN,41.0,     NaN,      NaN,NaN,-0.4,NaN,17.499, NaN,NaN,NaN, NaN, NaN
20040725,000504,1045760,33.820167,-121.838833,NaN,17.511,33.318,43.454,  NaN,0.0, NaN, NaN, NaN, NaN,24.103,380.262,18.00,1015.87,89.00,NaN,260.0,NaN,3.6,NaN,296.6,NaN,3.7,NaN,NaN, NaN,NaN,200.0,NaN,NaN,NaN,2,1.1,000302,   NaN,46.3,     NaN,      NaN,NaN,-0.8,NaN,17.515, NaN,NaN,NaN, NaN, NaN
20040725,000534,1045790,33.820000,-121.839000,NaN,17.551,33.317,43.491,  NaN,0.0, NaN, NaN, NaN, NaN,24.092,381.232,17.80,1016.00,88.90,NaN,239.0,NaN,3.4,NaN,285.6,NaN,3.8,NaN,NaN, NaN,NaN,206.0,NaN,NaN,NaN,2,0.9,000332,   NaN,51.8,     NaN,      NaN,NaN,-0.6,NaN,17.555, NaN,NaN,NaN, NaN, NaN
20040725,000604,1045820,33.820000,-121.839000,NaN,17.601,33.318,43.540,  NaN,0.0, NaN, NaN, NaN, NaN,24.081,382.314,17.80,1015.89,88.90,NaN,242.0,NaN,3.9,NaN,288.6,NaN,4.2,NaN,NaN, NaN,NaN,219.0,NaN,NaN,NaN,2,1.0,000362,   NaN,58.9,     NaN,      NaN,NaN,-0.6,NaN,17.605, NaN,NaN,NaN, NaN, NaN
20040725,000634,1045850,33.819833,-121.839000,NaN,17.652,33.315,43.585,  NaN,0.0, NaN, NaN, NaN, NaN,24.066,383.763,17.80,1015.77,88.90,NaN,233.0,NaN,3.7,NaN,294.2,NaN,3.9,NaN,NaN, NaN,NaN,216.0,NaN,NaN,NaN,2,0.6,000392,   NaN,63.9,     NaN,      NaN,NaN,-0.5,NaN,17.656, NaN,NaN,NaN, NaN, NaN
20040725,000704,1045880,33.819833,-121.839000,NaN,17.688,33.317,43.623,  NaN,0.0, NaN, NaN, NaN, NaN,24.059,384.413,17.80,1015.86,89.20,NaN,245.0,NaN,3.5,NaN,291.4,NaN,3.6,NaN,NaN, NaN,NaN,109.0,NaN,NaN,NaN,2,1.4,000422,   NaN,60.6,     NaN,      NaN,NaN,-0.2,NaN,17.692, NaN,NaN,NaN, NaN, NaN
20040725,000734,1045910,33.819667,-121.839000,NaN,17.704,33.318,43.639,  NaN,0.0, NaN, NaN, NaN, NaN,24.056,384.709,17.80,1015.95,88.80,NaN,247.0,NaN,4.2,NaN,300.2,NaN,4.2,NaN,NaN, NaN,NaN,105.0,NaN,NaN,NaN,2,0.6,000452,   NaN,61.7,     NaN,      NaN,NaN,0.1,NaN,17.709, NaN,NaN,NaN, NaN, NaN
20040725,000804,1045940,33.819667,-121.839000,NaN,17.711,33.317,43.645,  NaN,0.0, NaN, NaN, NaN, NaN,24.054,384.892,17.80,1015.79,89.30,NaN,241.0,NaN,3.9,NaN,300.2,NaN,4.1,NaN,NaN, NaN,NaN,99.0,NaN,NaN,NaN,2,0.9,000482,   NaN,60.8,     NaN,      NaN,NaN,0.3,NaN,17.715, NaN,NaN,NaN, NaN, NaN
20040725,000834,1045970,33.819667,-121.838833,NaN,17.705,33.319,43.641,  NaN,0.0, NaN, NaN, NaN, NaN,24.057,384.641,17.80,1015.92,89.00,NaN,246.0,NaN,3.8,NaN,300.1,NaN,3.9,NaN,NaN, NaN,NaN,103.0,NaN,NaN,NaN,2,0.8,000512,   NaN,60.6,     NaN,      NaN,NaN,0.2,NaN,17.709, NaN,NaN,NaN, NaN, NaN
20040725,000904,1046000,33.819667,-121.838667,NaN,17.703,33.318,43.638,  NaN,0.0, NaN, NaN, NaN, NaN,24.057,384.646,17.80,1015.75,89.30,NaN,244.0,NaN,4.1,NaN,299.5,NaN,4.6,NaN,NaN, NaN,NaN,64.0,NaN,NaN,NaN,2,0.8,000542,   NaN,60.5,     NaN,      NaN,NaN,0.1,NaN,17.707, NaN,NaN,NaN, NaN, NaN
20040725,000934,1046030,33.819667,-121.838667,NaN,17.698,33.318,43.633,  NaN,0.0, NaN, NaN, NaN, NaN,24.057,384.567,17.80,1015.81,88.80,NaN,249.0,NaN,4.5,NaN,303.8,NaN,4.7,NaN,NaN, NaN,NaN,78.0,NaN,NaN,NaN,2,0.7,000572,   NaN,60.2,     NaN,      NaN,NaN,0.1,NaN,17.703, NaN,NaN,NaN, NaN, NaN
20040725,001004,1046060,33.819667,-121.838500,NaN,17.696,33.319,43.632,  NaN,0.0, NaN, NaN, NaN, NaN,24.059,384.421,17.80,1015.77,89.00,NaN,241.0,NaN,3.7,NaN,298.0,NaN,4.1,NaN,NaN, NaN,NaN,77.0,NaN,NaN,NaN,2,0.9,000602,   NaN,59.9,     NaN,      NaN,NaN,0.3,NaN,17.700, NaN,NaN,NaN, NaN, NaN
20040725,001034,1046090,33.819667,-121.838333,NaN,17.695,33.319,43.631,  NaN,0.0, NaN, NaN, NaN, NaN,24.059,384.444,17.80,1015.86,89.00,NaN,245.0,NaN,3.5,NaN,295.5,NaN,3.7,NaN,NaN, NaN,NaN,97.0,NaN,NaN,NaN,2,0.9,000632,   NaN,58.2,     NaN,      NaN,NaN,0.2,NaN,17.699, NaN,NaN,NaN, NaN, NaN
20040725,001104,1046120,33.819667,-121.838333,NaN,17.703,33.318,43.639,  NaN,0.0, NaN, NaN, NaN, NaN,24.056,384.667,17.80,1015.75,89.30,NaN,254.0,NaN,3.8,NaN,303.7,NaN,3.7,NaN,NaN, NaN,NaN,101.0,NaN,NaN,NaN,2,0.8,000662,   NaN,55.7,     NaN,      NaN,NaN,0.2,NaN,17.708, NaN,NaN,NaN, NaN, NaN
20040725,001134,1046150,33.819667,-121.838167,NaN,17.707,33.318,43.642,  NaN,0.0, NaN, NaN, NaN, NaN,24.055,384.749,17.80,1015.84,89.30,NaN,258.0,NaN,3.9,NaN,301.9,NaN,3.7,NaN,NaN, NaN,NaN,97.0,NaN,NaN,NaN,2,0.8,000692,   NaN,54.1,     NaN,      NaN,NaN,0.1,NaN,17.711, NaN,NaN,NaN, NaN, NaN
20040725,001204,1046180,33.819667,-121.838167,NaN,17.706,33.319,43.642,  NaN,0.0, NaN, NaN, NaN, NaN,24.056,384.663,18.00,1015.86,89.20,NaN,253.0,NaN,4.7,NaN,305.9,NaN,4.2,NaN,NaN, NaN,NaN,92.0,NaN,NaN,NaN,2,0.8,000722,   NaN,54.2,     NaN,      NaN,NaN,0.0,NaN,17.710, NaN,NaN,NaN, NaN, NaN
20040725,001234,1046210,33.819667,-121.838167,NaN,17.713,33.318,43.648,  NaN,0.0, NaN, NaN, NaN, NaN,24.054,384.910,17.80,1015.81,89.00,NaN,248.0,NaN,3.7,NaN,297.1,NaN,3.9,NaN,NaN, NaN,NaN,120.0,NaN,NaN,NaN,2,0.6,000752,   NaN,55.9,     NaN,      NaN,NaN,-0.1,NaN,17.717, NaN,NaN,NaN, NaN, NaN
20040725,001304,1046240,33.819667,-121.838000,NaN,17.716,33.319,43.652,  NaN,0.0, NaN, NaN, NaN, NaN,24.054,384.926,17.80,1015.80,89.20,NaN,235.0,NaN,3.9,NaN,296.7,NaN,4.4,NaN,NaN, NaN,NaN,128.0,NaN,NaN,NaN,2,0.4,000782,   NaN,59.9,     NaN,      NaN,NaN,-0.2,NaN,17.721, NaN,NaN,NaN, NaN, NaN
20040725,001334,1046270,33.819667,-121.838000,NaN,17.714,33.319,43.649,  NaN,0.0, NaN, NaN, NaN, NaN,24.054,384.887,17.80,1015.82,88.90,NaN,234.0,NaN,4.5,NaN,297.3,NaN,4.7,NaN,NaN, NaN,NaN,115.0,NaN,NaN,NaN,2,0.4,000812,   NaN,66.8,     NaN,      NaN,NaN,-0.2,NaN,17.718, NaN,NaN,NaN, NaN, NaN
20040725,001404,1046300,33.819667,-121.837833,NaN,17.720,33.319,43.656,  NaN,0.0, NaN, NaN, NaN, NaN,24.053,385.028,17.70,1015.87,89.00,NaN,232.0,NaN,5.3,NaN,305.8,NaN,5.1,NaN,NaN, NaN,NaN,115.0,NaN,NaN,NaN,2,0.5,000842,   NaN,75.1,     NaN,      NaN,NaN,-0.4,NaN,17.725, NaN,NaN,NaN, NaN, NaN
20040725,001434,1046330,33.819500,-121.837833,NaN,17.723,33.318,43.657,  NaN,0.0, NaN, NaN, NaN, NaN,24.051,385.154,17.80,1015.84,89.20,NaN,224.0,NaN,5.0,NaN,302.3,NaN,5.2,NaN,NaN, NaN,NaN,101.0,NaN,NaN,NaN,2,0.5,000872,   NaN,80.4,     NaN,      NaN,NaN,-0.3,NaN,17.727, NaN,NaN,NaN, NaN, NaN
20040725,001504,1046360,33.819500,-121.837833,NaN,17.727,33.319,43.663,  NaN,0.0, NaN, NaN, NaN, NaN,24.051,385.165,17.80,1015.81,89.00,NaN,227.0,NaN,4.6,NaN,305.3,NaN,4.7,NaN,NaN, NaN,NaN,98.0,NaN,NaN,NaN,2,0.4,000902,   NaN,81.6,     NaN,      NaN,NaN,0.1,NaN,17.732, NaN,NaN,NaN, NaN, NaN
20040725,001534,1046390,33.819500,-121.837833,NaN,17.730,33.319,43.665,  NaN,0.0, NaN, NaN, NaN, NaN,24.051,385.226,17.80,1015.90,89.20,NaN,231.0,NaN,4.3,NaN,308.8,NaN,4.4,NaN,NaN, NaN,NaN,113.0,NaN,NaN,NaN,2,0.6,000932,   NaN,81.3,     NaN,      NaN,NaN,0.3,NaN,17.734, NaN,NaN,NaN, NaN, NaN
20040725,001604,1046420,33.819500,-121.837667,NaN,17.734,33.319,43.668,  NaN,0.0, NaN, NaN, NaN, NaN,24.049,385.329,17.80,1015.73,89.00,NaN,229.0,NaN,4.2,NaN,308.1,NaN,5.0,NaN,NaN, NaN,NaN,77.0,NaN,NaN,NaN,2,0.9,000962,   NaN,77.7,     NaN,      NaN,NaN,0.3,NaN,17.738, NaN,NaN,NaN, NaN, NaN
20040725,001634,1046450,33.819500,-121.837500,NaN,17.737,33.319,43.671,  NaN,0.0, NaN, NaN, NaN, NaN,24.049,385.411,17.80,1015.76,89.30,NaN,239.0,NaN,4.0,NaN,301.2,NaN,4.5,NaN,NaN, NaN,NaN,94.0,NaN,NaN,NaN,2,1.0,000992,   NaN,72.8,     NaN,      NaN,NaN,0.5,NaN,17.741, NaN,NaN,NaN, NaN, NaN
20040725,001704,1046480,33.819500,-121.837500,NaN,17.734,33.319,43.669,  NaN,0.0, NaN, NaN, NaN, NaN,24.050,385.307,17.80,1015.74,89.20,NaN,241.0,NaN,3.6,NaN,303.8,NaN,4.1,NaN,NaN, NaN,NaN,81.0,NaN,NaN,NaN,2,0.9,001022,   NaN,67.5,     NaN,      NaN,NaN,0.4,NaN,17.738, NaN,NaN,NaN, NaN, NaN
20040725,001734,1046510,33.819500,-121.837333,NaN,17.736,33.319,43.671,  NaN,0.0, NaN, NaN, NaN, NaN,24.049,385.388,17.80,1015.81,89.30,NaN,254.0,NaN,4.2,NaN,306.1,NaN,4.4,NaN,NaN, NaN,NaN,90.0,NaN,NaN,NaN,2,1.0,001052,   NaN,59.2,     NaN,      NaN,NaN,0.3,NaN,17.740, NaN,NaN,NaN, NaN, NaN
20040725,001804,1046540,33.819500,-121.837167,NaN,17.738,33.319,43.673,  NaN,0.0, NaN, NaN, NaN, NaN,24.049,385.408,17.80,1015.63,89.50,NaN,255.0,NaN,3.6,NaN,300.4,NaN,4.0,NaN,NaN, NaN,NaN,72.0,NaN,NaN,NaN,2,0.9,001082,   NaN,51.8,     NaN,      NaN,NaN,0.3,NaN,17.742, NaN,NaN,NaN, NaN, NaN
20040725,001834,1046570,33.819500,-121.837000,NaN,17.736,33.319,43.671,  NaN,0.0, NaN, NaN, NaN, NaN,24.049,385.391,18.00,1015.67,89.70,NaN,271.0,NaN,3.3,NaN,311.4,NaN,3.6,NaN,NaN, NaN,NaN,77.0,NaN,NaN,NaN,2,0.9,001112,   NaN,45.5,     NaN,      NaN,NaN,0.2,NaN,17.740, NaN,NaN,NaN, NaN, NaN
20040725,001904,1046600,33.819500,-121.836833,NaN,17.735,33.319,43.670,  NaN,0.0, NaN, NaN, NaN, NaN,24.049,385.327,18.00,1015.66,89.40,NaN,268.0,NaN,4.1,NaN,302.9,NaN,4.2,NaN,NaN, NaN,NaN,92.0,NaN,NaN,NaN,2,0.8,001142,   NaN,42.3,     NaN,      NaN,NaN,0.1,NaN,17.739, NaN,NaN,NaN, NaN, NaN
20040725,001934,1046630,33.819500,-121.836833,NaN,17.734,33.319,43.668,  NaN,0.0, NaN, NaN, NaN, NaN,24.049,385.328,18.00,1015.72,89.40,NaN,264.0,NaN,3.8,NaN,304.6,NaN,4.0,NaN,NaN, NaN,NaN,76.0,NaN,NaN,NaN,2,0.6,001172,   NaN,40.9,     NaN,      NaN,NaN,0.2,NaN,17.738, NaN,NaN,NaN, NaN, NaN
20040725,002004,1046660,33.819500,-121.836667,NaN,17.735,33.320,43.671,  NaN,0.0, NaN, NaN, NaN, NaN,24.050,385.282,18.00,1015.67,89.50,NaN,262.0,NaN,3.3,NaN,299.4,NaN,3.8,NaN,NaN, NaN,NaN,70.0,NaN,NaN,NaN,2,0.8,001202,   NaN,39.6,     NaN,      NaN,NaN,0.1,NaN,17.740, NaN,NaN,NaN, NaN, NaN
20040725,002034,1046690,33.819500,-121.836667,NaN,17.727,33.320,43.663,  NaN,0.0, NaN, NaN, NaN, NaN,24.052,385.079,18.10,1015.67,89.50,NaN,265.0,NaN,3.2,NaN,288.0,NaN,3.5,NaN,NaN, NaN,NaN,88.0,NaN,NaN,NaN,2,0.9,001232,   NaN,37.9,     NaN,      NaN,NaN,0.2,NaN,17.731, NaN,NaN,NaN, NaN, NaN
20040725,002104,1046720,33.819500,-121.836500,NaN,17.729,33.319,43.664,  NaN,0.0, NaN, NaN, NaN, NaN,24.051,385.206,18.10,1015.66,89.50,NaN,253.0,NaN,3.0,NaN,293.5,NaN,3.4,NaN,NaN, NaN,NaN,83.0,NaN,NaN,NaN,2,1.0,001262,   NaN,38.2,     NaN,      NaN,NaN,0.2,NaN,17.733, NaN,NaN,NaN, NaN, NaN
20040725,002134,1046750,33.819500,-121.836333,NaN,17.734,33.319,43.669,  NaN,0.0, NaN, NaN, NaN, NaN,24.049,385.327,18.00,1015.68,89.20,NaN,262.0,NaN,3.4,NaN,297.1,NaN,3.7,NaN,NaN, NaN,NaN,96.0,NaN,NaN,NaN,2,0.9,001292,   NaN,40.7,     NaN,      NaN,NaN,0.1,NaN,17.739, NaN,NaN,NaN, NaN, NaN
20040725,002204,1046780,33.819500,-121.836167,NaN,17.736,33.320,43.671,  NaN,0.0, NaN, NaN, NaN, NaN,24.049,385.325,18.00,1015.66,89.50,NaN,263.0,NaN,3.9,NaN,299.9,NaN,3.9,NaN,NaN, NaN,NaN,85.0,NaN,NaN,NaN,2,0.9,001322,   NaN,39.6,     NaN,      NaN,NaN,0.1,NaN,17.740, NaN,NaN,NaN, NaN, NaN
20040725,002234,1046810,33.819500,-121.836167,NaN,17.728,33.320,43.664,  NaN,0.0, NaN, NaN, NaN, NaN,24.051,385.142,18.10,1015.67,89.30,NaN,267.0,NaN,4.6,NaN,296.2,NaN,4.6,NaN,NaN, NaN,NaN,91.0,NaN,NaN,NaN,2,0.8,001352,   NaN,40.7,     NaN,      NaN,NaN,0.1,NaN,17.732, NaN,NaN,NaN, NaN, NaN
20040725,002304,1046840,33.819500,-121.836000,NaN,17.728,33.319,43.664,  NaN,0.0, NaN, NaN, NaN, NaN,24.051,385.164,18.00,1015.61,89.30,NaN,259.0,NaN,3.7,NaN,290.1,NaN,4.1,NaN,NaN, NaN,NaN,95.0,NaN,NaN,NaN,2,1.1,001382,   NaN,42.6,     NaN,      NaN,NaN,0.1,NaN,17.733, NaN,NaN,NaN, NaN, NaN
20040725,002334,1046870,33.819500,-121.835833,NaN,17.727,33.321,43.664,  NaN,0.0, NaN, NaN, NaN, NaN,24.052,385.059,18.00,1015.58,89.30,NaN,260.0,NaN,4.9,NaN,297.1,NaN,4.7,NaN,NaN, NaN,NaN,89.0,NaN,NaN,NaN,2,1.0,001412,   NaN,44.6,     NaN,      NaN,NaN,0.3,NaN,17.732, NaN,NaN,NaN, NaN, NaN
20040725,002404,1046900,33.819500,-121.835833,NaN,17.715,33.320,43.651,  NaN,0.0, NaN, NaN, NaN, NaN,24.055,384.796,18.00,1015.62,89.30,NaN,253.0,NaN,3.9,NaN,290.7,NaN,4.0,NaN,NaN, NaN,NaN,96.0,NaN,NaN,NaN,2,1.3,001442,   NaN,46.9,     NaN,      NaN,NaN,0.2,NaN,17.719, NaN,NaN,NaN, NaN, NaN
20040725,002434,1046930,33.819500,-121.835667,NaN,17.705,33.320,43.642,  NaN,0.0, NaN, NaN, NaN, NaN,24.057,384.599,17.80,1015.70,89.30,NaN,254.0,NaN,4.2,NaN,291.7,NaN,4.2,NaN,NaN, NaN,NaN,103.0,NaN,NaN,NaN,2,1.0,001472,   NaN,48.3,     NaN,      NaN,NaN,0.2,NaN,17.709, NaN,NaN,NaN, NaN, NaN
20040725,002504,1046960,33.819500,-121.835500,NaN,17.702,33.320,43.639,  NaN,0.0, NaN, NaN, NaN, NaN,24.058,384.539,18.00,1015.68,89.50,NaN,255.0,NaN,3.5,NaN,288.4,NaN,4.0,NaN,NaN, NaN,NaN,95.0,NaN,NaN,NaN,2,1.2,001502,   NaN,48.6,     NaN,      NaN,NaN,0.2,NaN,17.706, NaN,NaN,NaN, NaN, NaN
20040725,002534,1046990,33.819500,-121.835333,NaN,17.709,33.319,43.645,  NaN,0.0, NaN, NaN, NaN, NaN,24.056,384.721,18.00,1015.54,89.50,NaN,250.0,NaN,4.6,NaN,295.8,NaN,4.5,NaN,NaN, NaN,NaN,97.0,NaN,NaN,NaN,2,1.1,001532,   NaN,49.6,     NaN,      NaN,NaN,0.1,NaN,17.713, NaN,NaN,NaN, NaN, NaN
20040725,002604,1047020,33.819500,-121.835167,NaN,17.708,33.320,43.645,  NaN,0.0, NaN, NaN, NaN, NaN,24.057,384.660,18.00,1015.61,89.30,NaN,264.0,NaN,5.3,NaN,295.4,NaN,4.8,NaN,NaN, NaN,NaN,65.0,NaN,NaN,NaN,2,1.2,001562,   NaN,48.6,     NaN,      NaN,NaN,0.3,NaN,17.712, NaN,NaN,NaN, NaN, NaN
20040725,002634,1047050,33.819500,-121.835000,NaN,17.713,33.319,43.649,  NaN,0.0, NaN, NaN, NaN, NaN,24.055,384.822,18.00,1015.60,89.70,NaN,254.0,NaN,4.4,NaN,300.9,NaN,4.6,NaN,NaN, NaN,NaN,96.0,NaN,NaN,NaN,2,0.8,001592,   NaN,46.9,     NaN,      NaN,NaN,0.1,NaN,17.718, NaN,NaN,NaN, NaN, NaN
20040725,002704,1047080,33.819333,-121.834833,NaN,17.724,33.320,43.660,  NaN,0.0, NaN, NaN, NaN, NaN,24.053,385.021,18.00,1015.56,89.70,NaN,256.0,NaN,4.9,NaN,296.4,NaN,5.4,NaN,NaN, NaN,NaN,57.0,NaN,NaN,NaN,2,0.9,001622,   NaN,46.2,     NaN,      NaN,NaN,0.2,NaN,17.728, NaN,NaN,NaN, NaN, NaN
20040725,002734,1047110,33.819333,-121.834833,NaN,17.720,33.321,43.657,  NaN,0.0, NaN, NaN, NaN, NaN,24.054,384.854,18.00,1015.74,89.70,NaN,261.0,NaN,4.1,NaN,292.7,NaN,4.0,NaN,NaN, NaN,NaN,98.0,NaN,NaN,NaN,2,1.0,001652,   NaN,44.8,     NaN,      NaN,NaN,0.4,NaN,17.724, NaN,NaN,NaN, NaN, NaN
20040725,002804,1047140,33.819333,-121.834667,NaN,17.703,33.321,43.642,  NaN,0.0, NaN, NaN, NaN, NaN,24.059,384.448,18.00,1015.60,89.40,NaN,255.0,NaN,4.0,NaN,289.1,NaN,3.9,NaN,NaN, NaN,NaN,156.0,NaN,NaN,NaN,2,1.0,001682,   NaN,45.2,     NaN,      NaN,NaN,-0.2,NaN,17.708, NaN,NaN,NaN, NaN, NaN
20040725,002834,1047170,33.819333,-121.834667,NaN,17.703,33.320,43.640,  NaN,0.0, NaN, NaN, NaN, NaN,24.058,384.538,18.00,1015.60,89.40,NaN,247.0,NaN,4.0,NaN,293.6,NaN,3.9,NaN,NaN, NaN,NaN,177.0,NaN,NaN,NaN,2,1.0,001712,   NaN,53.0,     NaN,      NaN,NaN,-0.9,NaN,17.707, NaN,NaN,NaN, NaN, NaN
20040725,002904,1047200,33.819333,-121.834667,NaN,17.698,33.321,43.637,  NaN,0.0, NaN, NaN, NaN, NaN,24.060,384.371,18.00,1015.62,89.40,NaN,239.0,NaN,4.0,NaN,296.8,NaN,4.5,NaN,NaN, NaN,NaN,192.0,NaN,NaN,NaN,2,0.6,001742,   NaN,60.1,     NaN,      NaN,NaN,-0.2,NaN,17.703, NaN,NaN,NaN, NaN, NaN
20040725,002934,1047230,33.819167,-121.834667,NaN,17.696,33.320,43.634,  NaN,0.0, NaN, NaN, NaN, NaN,24.060,384.353,17.80,1015.63,89.20,NaN,241.0,NaN,4.9,NaN,300.6,NaN,5.1,NaN,NaN, NaN,NaN,187.0,NaN,NaN,NaN,2,0.7,001772,   NaN,65.9,     NaN,      NaN,NaN,-0.3,NaN,17.700, NaN,NaN,NaN, NaN, NaN
20040725,003004,1047260,33.819167,-121.834667,NaN,17.696,33.320,43.634,  NaN,0.0, NaN, NaN, NaN, NaN,24.060,384.353,17.80,1015.67,89.40,NaN,235.0,NaN,5.4,NaN,302.3,NaN,5.6,NaN,NaN, NaN,NaN,144.0,NaN,NaN,NaN,2,0.6,001802,   NaN,70.5,     NaN,      NaN,NaN,-0.1,NaN,17.700, NaN,NaN,NaN, NaN, NaN
20040725,003034,1047290,33.819167,-121.834667,NaN,17.697,33.320,43.634,  NaN,0.0, NaN, NaN, NaN, NaN,24.060,384.374,17.80,1015.65,89.40,NaN,233.0,NaN,4.7,NaN,301.1,NaN,4.9,NaN,NaN, NaN,NaN,133.0,NaN,NaN,NaN,2,0.7,001832,   NaN,72.9,     NaN,      NaN,NaN,-0.1,NaN,17.701, NaN,NaN,NaN, NaN, NaN
20040725,003104,1047320,33.819000,-121.834500,NaN,17.698,33.320,43.635,  NaN,0.0, NaN, NaN, NaN, NaN,24.059,384.415,17.80,1015.63,89.50,NaN,231.0,NaN,4.6,NaN,300.0,NaN,5.0,NaN,NaN, NaN,NaN,123.0,NaN,NaN,NaN,2,0.7,001862,   NaN,73.7,     NaN,      NaN,NaN,0.0,NaN,17.702, NaN,NaN,NaN, NaN, NaN
20040725,003134,1047350,33.819000,-121.834500,NaN,17.703,33.320,43.640,  NaN,0.0, NaN, NaN, NaN, NaN,24.058,384.537,17.80,1015.59,89.50,NaN,235.0,NaN,3.7,NaN,305.2,NaN,4.2,NaN,NaN, NaN,NaN,119.0,NaN,NaN,NaN,2,0.9,001892,   NaN,72.9,     NaN,      NaN,NaN,0.2,NaN,17.707, NaN,NaN,NaN, NaN, NaN
20040725,003204,1047380,33.819000,-121.834333,NaN,17.704,33.321,43.642,  NaN,0.0, NaN, NaN, NaN, NaN,24.058,384.535,17.80,1015.61,89.30,NaN,229.0,NaN,4.9,NaN,305.6,NaN,5.4,NaN,NaN, NaN,NaN,80.0,NaN,NaN,NaN,2,1.0,001922,   NaN,70.4,     NaN,      NaN,NaN,0.5,NaN,17.709, NaN,NaN,NaN, NaN, NaN
20040725,003234,1047410,33.819000,-121.834333,NaN,17.701,33.321,43.640,  NaN,0.0, NaN, NaN, NaN, NaN,24.059,384.432,17.80,1015.65,89.50,NaN,246.0,NaN,4.2,NaN,303.9,NaN,4.4,NaN,NaN, NaN,NaN,101.0,NaN,NaN,NaN,2,1.0,001952,   NaN,64.9,     NaN,      NaN,NaN,0.3,NaN,17.706, NaN,NaN,NaN, NaN, NaN
20040725,003304,1047440,33.819000,-121.834167,NaN,17.701,33.320,43.638,  NaN,0.0, NaN, NaN, NaN, NaN,24.058,384.499,17.80,1015.49,89.50,NaN,257.0,NaN,5.0,NaN,304.3,NaN,5.4,NaN,NaN, NaN,NaN,76.0,NaN,NaN,NaN,2,1.0,001982,   NaN,54.9,     NaN,      NaN,NaN,0.3,NaN,17.705, NaN,NaN,NaN, NaN, NaN
20040725,003334,1047470,33.819000,-121.834000,NaN,17.705,33.320,43.643,  NaN,0.0, NaN, NaN, NaN, NaN,24.058,384.555,17.80,1015.62,89.70,NaN,275.0,NaN,4.7,NaN,310.2,NaN,4.5,NaN,NaN, NaN,NaN,95.0,NaN,NaN,NaN,2,1.0,002012,   NaN,44.4,     NaN,      NaN,NaN,0.2,NaN,17.709, NaN,NaN,NaN, NaN, NaN
20040725,003404,1047500,33.819000,-121.833833,NaN,17.699,33.321,43.637,  NaN,0.0, NaN, NaN, NaN, NaN,24.059,384.414,18.00,1015.62,89.80,NaN,287.0,NaN,4.2,NaN,315.5,NaN,4.4,NaN,NaN, NaN,NaN,62.0,NaN,NaN,NaN,2,0.9,002042,   NaN,32.4,     NaN,      NaN,NaN,0.2,NaN,17.703, NaN,NaN,NaN, NaN, NaN
20040725,003434,1047530,33.819000,-121.833500,NaN,17.698,33.320,43.635,  NaN,0.0, NaN, NaN, NaN, NaN,24.059,384.416,18.00,1015.76,89.50,NaN,295.0,NaN,4.1,NaN,307.9,NaN,3.8,NaN,NaN, NaN,NaN,71.0,NaN,NaN,NaN,2,1.4,002072,   NaN,23.3,     NaN,      NaN,NaN,0.2,NaN,17.702, NaN,NaN,NaN, NaN, NaN
20040725,003504,1047560,33.819000,-121.833500,NaN,17.701,33.320,43.638,  NaN,0.0, NaN, NaN, NaN, NaN,24.059,384.455,18.00,1015.68,89.40,NaN,318.0,NaN,4.6,NaN,318.4,NaN,4.1,NaN,NaN, NaN,NaN,38.0,NaN,NaN,NaN,2,0.9,002102,   NaN,13.0,     NaN,      NaN,NaN,0.2,NaN,17.705, NaN,NaN,NaN, NaN, NaN
20040725,003534,1047590,33.819000,-121.833333,NaN,17.699,33.320,43.637,  NaN,0.0, NaN, NaN, NaN, NaN,24.059,384.435,18.00,1015.58,89.20,NaN,315.0,NaN,5.4,NaN,309.5,NaN,5.3,NaN,NaN, NaN,NaN,60.0,NaN,NaN,NaN,2,0.9,002132,   NaN,4.0,     NaN,      NaN,NaN,0.1,NaN,17.703, NaN,NaN,NaN, NaN, NaN
20040725,003604,1047620,33.819000,-121.833167,NaN,17.700,33.320,43.637,  NaN,0.0, NaN, NaN, NaN, NaN,24.058,384.477,17.70,1015.59,89.00,NaN,326.0,NaN,5.5,NaN,315.8,NaN,5.0,NaN,NaN, NaN,NaN,64.0,NaN,NaN,NaN,2,0.9,002162,   NaN,354.5,     NaN,      NaN,NaN,0.3,NaN,17.704, NaN,NaN,NaN, NaN, NaN
20040725,003634,1047650,33.819167,-121.833167,NaN,17.707,33.321,43.645,  NaN,0.0, NaN, NaN, NaN, NaN,24.057,384.592,17.80,1015.63,89.00,NaN,336.0,NaN,4.7,NaN,322.9,NaN,4.3,NaN,NaN, NaN,NaN,56.0,NaN,NaN,NaN,2,1.0,002192,   NaN,343.3,     NaN,      NaN,NaN,0.4,NaN,17.712, NaN,NaN,NaN, NaN, NaN
20040725,003704,1047680,33.819167,-121.833000,NaN,17.717,33.320,43.654,  NaN,0.0, NaN, NaN, NaN, NaN,24.055,384.838,17.80,1015.69,89.00,NaN,345.0,NaN,5.0,NaN,316.7,NaN,4.3,NaN,NaN, NaN,NaN,43.0,NaN,NaN,NaN,2,0.9,002222,   NaN,329.4,     NaN,      NaN,NaN,0.3,NaN,17.721, NaN,NaN,NaN, NaN, NaN
20040725,003734,1047710,33.819333,-121.832833,NaN,17.716,33.320,43.654,  NaN,0.0, NaN, NaN, NaN, NaN,24.055,384.816,17.80,1015.60,88.90,NaN,355.0,NaN,5.7,NaN,317.5,NaN,4.9,NaN,NaN, NaN,NaN,39.0,NaN,NaN,NaN,2,0.8,002252,   NaN,315.7,     NaN,      NaN,NaN,0.5,NaN,17.721, NaN,NaN,NaN, NaN, NaN
20040725,003804,1047740,33.819333,-121.832833,NaN,17.708,33.321,43.646,  NaN,0.0, NaN, NaN, NaN, NaN,24.057,384.615,17.80,1015.67,88.90,NaN,6.0,NaN,5.2,NaN,315.5,NaN,4.8,NaN,NaN, NaN,NaN,68.0,NaN,NaN,NaN,2,0.6,002282,   NaN,306.9,     NaN,      NaN,NaN,0.1,NaN,17.713, NaN,NaN,NaN, NaN, NaN
20040725,003834,1047770,33.819333,-121.832833,NaN,17.704,33.320,43.642,  NaN,0.0, NaN, NaN, NaN, NaN,24.058,384.558,17.80,1015.66,88.90,NaN,18.0,NaN,4.6,NaN,319.6,NaN,4.1,NaN,NaN, NaN,NaN,100.0,NaN,NaN,NaN,2,0.6,002312,   NaN,298.9,     NaN,      NaN,NaN,-0.1,NaN,17.709, NaN,NaN,NaN, NaN, NaN
20040725,003904,1047800,33.819333,-121.832833,NaN,17.696,33.321,43.635,  NaN,0.0, NaN, NaN, NaN, NaN,24.060,384.289,17.80,1015.74,88.90,NaN,21.0,NaN,4.8,NaN,319.6,NaN,4.4,NaN,NaN, NaN,NaN,93.0,NaN,NaN,NaN,2,0.8,002342,   NaN,289.4,     NaN,      NaN,NaN,-0.2,NaN,17.701, NaN,NaN,NaN, NaN, NaN
20040725,003934,1047830,33.819500,-121.832667,NaN,17.670,33.321,43.610,  NaN,0.0, NaN, NaN, NaN, NaN,24.066,383.727,17.70,1015.66,88.50,NaN,34.0,NaN,5.7,NaN,320.2,NaN,5.2,NaN,NaN, NaN,NaN,88.0,NaN,NaN,NaN,2,1.0,002372,   NaN,278.7,     NaN,      NaN,NaN,-0.3,NaN,17.675, NaN,NaN,NaN, NaN, NaN
20040725,004004,1047860,33.819333,-121.832500,NaN,17.654,33.321,43.595,  NaN,0.0, NaN, NaN, NaN, NaN,24.070,383.343,17.70,1015.61,88.90,NaN,44.0,NaN,4.8,NaN,312.2,NaN,4.7,NaN,NaN, NaN,NaN,107.0,NaN,NaN,NaN,2,1.3,002402,   NaN,267.2,     NaN,      NaN,NaN,-0.3,NaN,17.659, NaN,NaN,NaN, NaN, NaN